Change the Weather History Date:

Friday, June 27, 2014

  Actual Average Record
Temperature  
Mean Temperature 74 °F 74 °F  
Max Temperature 81 °F 84 °F 98 °F (1963)
Min Temperature 66 °F 64 °F 52 °F (1905)
Degree Days  
Heating Degree Days 0 0  
Month to date heating degree days 3 22  
Since 1 June heating degree days 3 22  
Since 1 July heating degree days 5477 5158  
Cooling Degree Days 9 9  
Month to date cooling degree days 173 163  
Year to date cooling degree days 217 220  
Since 1 June cooling degree days 173 163  
Growing Degree Days 24 (Base 50)    
Moisture  
Dew Point 62 °F    
Average Humidity 68    
Maximum Humidity 87    
Minimum Humidity 49    
Precipitation  
Precipitation 0.00 in 0.13 in 2.79 in (1921)
Month to date precipitation 2.24 4.01  
Year to date precipitation 22.57 21.53  
Sea Level Pressure  
Sea Level Pressure 30.08 in    
Wind  
Wind Speed 6 mph (ESE)    
Max Wind Speed 14 mph    
Max Gust Speed 18 mph    
Visibility 10 miles    
Events      
T = Trace of Precipitation, MM = Missing Value Source: NWS Daily Summary

Daily Weather History Graph

Daily Weather History Graph

Search for Another Location

Airport or City:

Trip Planner

Search our weather history database for the weather conditions in past years. The results will help you decide how hot, cold, wet, or windy it might be!

Date:

Astronomy

Jun. 27, 2014 Rise Set
Actual Time 5:31 AM EDT 8:33 PM EDT
Civil Twilight 4:58 AM EDT 9:06 PM EDT
Nautical Twilight 4:16 AM EDT 9:48 PM EDT
Astronomical Twilight 3:27 AM EDT 10:37 PM EDT
Moon 5:59 AM EDT (6/27) 8:36 PM EDT (6/27)
Length of Visible Light 16h 07m
Length of Day
15h 01m
New Moon, 0% of the Moon is Illuminated
Jun 27
New Moon
Jul 5
First Quarter
Jul 12
Full
Jul 18
Last Quarter
Jul 26
New

Hourly Weather History & Observations

Time (EDT) Temp. Heat Index Dew Point Humidity Pressure Visibility Wind Dir Wind Speed Gust Speed Precip Events Conditions
12:53 AM 73.9 °F - 64.0 °F 71% 29.95 in 10.0 mi North 5.8 mph - N/A   Scattered Clouds
1:53 AM 73.0 °F - 63.0 °F 71% 29.96 in 10.0 mi NNE 4.6 mph - N/A   Scattered Clouds
2:53 AM 70.0 °F - 64.0 °F 81% 29.97 in 10.0 mi ENE 10.4 mph - N/A   Clear
3:14 AM 69.1 °F - 64.9 °F 87% 30.00 in 10.0 mi ENE 8.1 mph - N/A   Mostly Cloudy
3:26 AM 69.1 °F - 64.9 °F 87% 30.01 in 10.0 mi ENE 11.5 mph - N/A   Overcast
3:53 AM 69.1 °F - 64.9 °F 87% 29.99 in 10.0 mi East 4.6 mph - N/A   Overcast
4:18 AM 69.1 °F - 64.9 °F 87% 30.02 in 10.0 mi East 5.8 mph - N/A   Overcast
4:53 AM 69.1 °F - 64.9 °F 87% 30.01 in 10.0 mi East 5.8 mph - N/A   Overcast
5:08 AM 68.0 °F - 64.0 °F 87% 30.04 in 10.0 mi East 8.1 mph - N/A   Overcast
5:24 AM 68.0 °F - 64.0 °F 87% 30.04 in 10.0 mi East 5.8 mph - N/A   Overcast
5:53 AM 68.0 °F - 64.0 °F 87% 30.03 in 10.0 mi East 4.6 mph - N/A   Overcast
6:25 AM 68.0 °F - 64.0 °F 87% 30.07 in 10.0 mi East 5.8 mph - N/A   Scattered Clouds
6:53 AM 68.0 °F - 63.0 °F 84% 30.05 in 10.0 mi ESE 8.1 mph - N/A   Scattered Clouds
7:53 AM 70.0 °F - 61.0 °F 73% 30.07 in 10.0 mi East 6.9 mph - N/A   Scattered Clouds
8:53 AM 71.1 °F - 62.1 °F 73% 30.09 in 10.0 mi East 8.1 mph - N/A   Mostly Cloudy
9:25 AM 72.0 °F - 63.0 °F 73% 30.11 in 10.0 mi East 5.8 mph - N/A   Mostly Cloudy
9:53 AM 73.0 °F - 63.0 °F 71% 30.10 in 10.0 mi East 6.9 mph - N/A   Overcast
10:53 AM 73.0 °F - 63.0 °F 71% 30.12 in 10.0 mi ENE 4.6 mph - N/A   Overcast
11:32 AM 75.9 °F - 64.9 °F 69% 30.13 in 10.0 mi East 4.6 mph - N/A   Mostly Cloudy
11:41 AM 75.0 °F - 64.0 °F 69% 30.13 in 10.0 mi Variable 3.5 mph - N/A   Partly Cloudy
11:53 AM 75.9 °F - 63.0 °F 64% 30.11 in 10.0 mi SE 5.8 mph - N/A   Scattered Clouds
12:53 PM 77.0 °F - 63.0 °F 62% 30.11 in 10.0 mi East 4.6 mph - N/A   Scattered Clouds
2:53 PM 80.1 °F 81.5 °F 63.0 °F 56% 30.10 in 10.0 mi SSW 5.8 mph - N/A   Scattered Clouds
3:53 PM 78.1 °F - 60.1 °F 54% 30.10 in 10.0 mi North - - N/A   Partly Cloudy
4:53 PM 80.1 °F 81.1 °F 61.0 °F 52% 30.09 in 10.0 mi SSW 9.2 mph - N/A   Clear
5:53 PM 79.0 °F - 59.0 °F 50% 30.09 in 10.0 mi South 9.2 mph - N/A   Mostly Cloudy
6:53 PM 78.1 °F - 59.0 °F 52% 30.10 in 10.0 mi South 8.1 mph - N/A   Clear
7:53 PM 75.0 °F - 55.9 °F 51% 30.12 in 10.0 mi South 8.1 mph - N/A   Clear
8:53 PM 73.0 °F - 53.1 °F 49% 30.14 in 10.0 mi South 8.1 mph - N/A   Partly Cloudy
9:53 PM 71.1 °F - 53.1 °F 53% 30.17 in 10.0 mi South 6.9 mph - N/A   Clear
10:53 PM 68.0 °F - 54.0 °F 61% 30.19 in 10.0 mi South 8.1 mph - N/A   Clear
11:53 PM 66.9 °F - 55.0 °F 66% 30.20 in 10.0 mi South 4.6 mph - N/A   Clear